カタログに戻る

ARIANE 44L+ DEB

LostGTO
NORAD 26790·DEBRIS·🇫🇷 France

打ち上げ Apr 15, 1992 から Guiana Space Centre

Loading…

TLE

古いSource: Space-Track

元期: Nov 20, 2024, 05:39 UTC

1 26790U 92021Q   24325.23559052 -.00000153  00000-0  00000+0 0  9994
2 26790   3.7964 330.7418 6974467 207.4891 111.2142  2.23070485    08

AllMySatでARIANE 44L+ DEBをリアルタイム追跡

Download on the App Store